Location: Dürabuch
(48.2640°N, 11.2185°E)
Time: 18:49:32
(UTC+00:00)

CZ-2D R/B - Pass Details

Date: 30 May 2025
Orbit: 790 x 841 km, 98.8° (Epoch: 16 June)

Event Time Altitude Azimuth Distance (km) Brightness Sun altitude
Rises 01:08:44 0° 19° (NNE) 3,410 7.1 -15.3°
Reaches altitude 10° 01:11:14 10° 26° (NNE) 2,469 6.0 -15.1°
Maximum altitude 01:16:27 44° 98° (E) 1,146 3.0 -14.7°
Enters shadow 01:21:19 12° 169° (S) 2,328 4.1 -14.3°
